International Skating Union - Official Site

Essent ISU World Cup Hamar
February 11-12, 2012

Draw | Lap Times | Index | World Cup

Referee: Jan  BOLT  (NED)
Starter: Ole Herman  SÖRLI  (NOR)
StartTime: EndTime: Air Temp: Ice Temp: Humidity:
15:13 16:02 12 ℃ -7.4 ℃ 22%
Result Team Pursuit Men
Rankings as of Feb 12 2012 4:14PM
Rank: No.: Team: Nation: Time: Behind: Points:
Total 11
1 10 Russia (64) Ivan SKOBREV (62) Yevgeny LALENKOV (65) Denis YUSKOV (0)   RUS RUS 3:45.420.5 - 18.14 - (18.1)
1.0 - 32.02 - (13.8)
1.5 - 45.54 - (13.5)
2.0 - 59.27 - (13.7)
2.5 - 1:12.84 - (13.5)
3.0 - 1:26.64 - (13.8)
3.5 - 1:40.45 - (13.8)
4.0 - 1:54.35 - (13.9)
4.5 - 2:08.20 - (13.8)
5.0 - 2:22.19 - (13.9)
5.5 - 2:35.91 - (13.7)
6.0 - 2:49.76 - (13.8)
6.5 - 3:03.49 - (13.7)
7.0 - 3:17.24 - (13.7)
7.5 - 3:31.26 - (14.0)
8.0 - 3:45.42 - (14.1)
100
2 2 Korea (35) Hyung-Joon JOO (36) Byung-Wook KO (37) Seung-Hoon LEE KOR KOR 3:46.680.5 - 18.08 - (18.0)
1.0 - 31.62 - (13.5)
1.5 - 45.07 - (13.4)
2.0 - 58.37 - (13.3)
2.5 - 1:11.91 - (13.5)
3.0 - 1:25.66 - (13.7)
3.5 - 1:39.56 - (13.9)
4.0 - 1:53.45 - (13.8)
4.5 - 2:07.64 - (14.1)
5.0 - 2:21.88 - (14.2)
5.5 - 2:36.34 - (14.4)
6.0 - 2:50.67 - (14.3)
6.5 - 3:05.03 - (14.3)
7.0 - 3:19.05 - (14.0)
7.5 - 3:32.89 - (13.8)
8.0 - 3:46.68 - (13.7)
1.26 80
3 3 Germany (22) Robert LEHMANN (18) Alexej BAUMGÄRTNER (19) Patrick BECKERT (0)   GER GER 3:46.870.5 - 18.16 - (18.1)
1.0 - 31.74 - (13.5)
1.5 - 45.21 - (13.4)
2.0 - 58.61 - (13.4)
2.5 - 1:12.10 - (13.4)
3.0 - 1:25.76 - (13.6)
3.5 - 1:39.45 - (13.6)
4.0 - 1:53.63 - (14.1)
4.5 - 2:07.66 - (14.0)
5.0 - 2:21.91 - (14.2)
5.5 - 2:35.99 - (14.0)
6.0 - 2:50.11 - (14.1)
6.5 - 3:04.46 - (14.3)
7.0 - 3:18.63 - (14.1)
7.5 - 3:32.74 - (14.1)
8.0 - 3:46.87 - (14.1)
1.45 70
4 4 USA (69) Brian HANSEN (70) Jonathan KUCK (68) Shani DAVIS USA USA 3:47.070.5 - 18.28 - (18.2)
1.0 - 31.93 - (13.6)
1.5 - 45.83 - (13.9)
2.0 - 59.79 - (13.9)
2.5 - 1:13.71 - (13.9)
3.0 - 1:27.47 - (13.7)
3.5 - 1:41.24 - (13.7)
4.0 - 1:55.28 - (14.0)
4.5 - 2:09.25 - (13.9)
5.0 - 2:23.47 - (14.2)
5.5 - 2:37.66 - (14.1)
6.0 - 2:51.72 - (14.0)
6.5 - 3:05.35 - (13.6)
7.0 - 3:19.07 - (13.7)
7.5 - 3:32.97 - (13.9)
8.0 - 3:47.07 - (14.1)
1.65 60
5 6 Canada (10) Denny MORRISON (9) Lucas MAKOWSKY (6) Jordan BELCHOS (0)   CAN CAN 3:47.840.5 - 17.68 - (17.6)
1.0 - 31.20 - (13.5)
1.5 - 44.74 - (13.5)
2.0 - 58.49 - (13.7)
2.5 - 1:12.26 - (13.7)
3.0 - 1:25.97 - (13.7)
3.5 - 1:39.75 - (13.7)
4.0 - 1:53.68 - (13.9)
4.5 - 2:07.87 - (14.1)
5.0 - 2:21.98 - (14.1)
5.5 - 2:36.24 - (14.2)
6.0 - 2:50.58 - (14.3)
6.5 - 3:04.93 - (14.3)
7.0 - 3:19.24 - (14.3)
7.5 - 3:33.46 - (14.2)
8.0 - 3:47.84 - (14.3)
2.42 50
6 5 Poland (56) Zbigniew BRODKA (59) Konrad NIEDZWIEDZKI (60) Jan SZYMANSKI (0)   POL POL 3:51.670.5 - 18.65 - (18.6)
1.0 - 32.98 - (14.3)
1.5 - 47.25 - (14.2)
2.0 - 1:01.22 - (13.9)
2.5 - 1:15.14 - (13.9)
3.0 - 1:29.30 - (14.1)
3.5 - 1:43.23 - (13.9)
4.0 - 1:57.37 - (14.1)
4.5 - 2:11.88 - (14.5)
5.0 - 2:26.35 - (14.4)
5.5 - 2:40.81 - (14.4)
6.0 - 2:54.95 - (14.1)
6.5 - 3:09.07 - (14.1)
7.0 - 3:23.32 - (14.2)
7.5 - 3:37.52 - (14.2)
8.0 - 3:51.67 - (14.1)
6.25 45
7 8 Norway (51) Mikael Flygind LARSEN (53) Sverre LUNDE PEDERSEN (52) Håvard LORENTZEN (0)   NOR NOR 3:53.420.5 - 17.77 - (17.7)
1.0 - 31.73 - (13.9)
1.5 - 45.80 - (14.0)
2.0 - 59.93 - (14.1)
2.5 - 1:14.04 - (14.1)
3.0 - 1:28.11 - (14.0)
3.5 - 1:42.46 - (14.3)
4.0 - 1:56.91 - (14.4)
4.5 - 2:11.51 - (14.6)
5.0 - 2:25.85 - (14.3)
5.5 - 2:39.99 - (14.1)
6.0 - 2:54.35 - (14.3)
6.5 - 3:09.07 - (14.7)
7.0 - 3:23.96 - (14.8)
7.5 - 3:38.63 - (14.6)
8.0 - 3:53.42 - (14.8)
8.00 40
8 7 Italy (27) Luca STEFANI (24) Matteo ANESI (25) Marco CIGNINI (0)   ITA ITA 3:54.790.5 - 18.32 - (18.3)
1.0 - 32.53 - (14.2)
1.5 - 46.79 - (14.2)
2.0 - 1:01.28 - (14.4)
2.5 - 1:15.54 - (14.2)
3.0 - 1:29.95 - (14.4)
3.5 - 1:44.39 - (14.4)
4.0 - 1:58.98 - (14.5)
4.5 - 2:13.46 - (14.4)
5.0 - 2:28.02 - (14.5)
5.5 - 2:42.15 - (14.1)
6.0 - 2:56.58 - (14.4)
6.5 - 3:11.32 - (14.7)
7.0 - 3:26.01 - (14.6)
7.5 - 3:40.42 - (14.4)
8.0 - 3:54.79 - (14.3)
9.37 36
9 11 Japan (28) Hiroki HIRAKO (29) Teppei MORI (30) Shota NAKAMURA JPN JPN 3:57.510.5 - 18.03 - (18.0)
1.0 - 32.25 - (14.2)
1.5 - 46.78 - (14.5)
2.0 - 1:01.14 - (14.3)
2.5 - 1:15.72 - (14.5)
3.0 - 1:30.18 - (14.4)
3.5 - 1:44.81 - (14.6)
4.0 - 1:59.55 - (14.7)
4.5 - 2:14.41 - (14.8)
5.0 - 2:29.00 - (14.5)
5.5 - 2:43.93 - (14.9)
6.0 - 2:58.42 - (14.4)
6.5 - 3:13.15 - (14.7)
7.0 - 3:27.93 - (14.7)
7.5 - 3:42.76 - (14.8)
8.0 - 3:57.51 - (14.7)
12.09 32
10 9 Czech Republic (13) Zdenek HASELBERGER (14) Pavel KULMA (15) Milan SÁBLIK CZE CZE 4:01.390.5 - 18.93 - (18.9)
1.0 - 33.68 - (14.7)
1.5 - 48.48 - (14.8)
2.0 - 1:03.03 - (14.5)
2.5 - 1:17.69 - (14.6)
3.0 - 1:32.15 - (14.4)
3.5 - 1:46.80 - (14.6)
4.0 - 2:01.45 - (14.6)
4.5 - 2:16.58 - (15.1)
5.0 - 2:31.42 - (14.8)
5.5 - 2:46.39 - (14.9)
6.0 - 3:01.24 - (14.8)
6.5 - 3:16.54 - (15.3)
7.0 - 3:31.64 - (15.1)
7.5 - 3:46.74 - (15.1)
8.0 - 4:01.39 - (14.6)
15.97 28
11 1 Netherlands (39) Jan BLOKHUIJSEN (46) Koen VERWEIJ (43) Rhian KET (0)   NED NED 4:07.170.5 - 17.69 - (17.6)
1.0 - 31.33 - (13.6)
1.5 - 45.16 - (13.8)
2.0 - 59.32 - (14.1)
2.5 - 1:13.37 - (14.0)
3.0 - 1:27.44 - (14.0)
3.5 - 1:41.67 - (14.2)
4.0 - 1:55.40 - (13.7)
4.5 - 2:09.33 - (13.9)
5.0 - 2:23.42 - (14.0)
5.5 - 2:37.68 - (14.2)
6.0 - 2:52.10 - (14.4)
6.5 - 3:06.85 - (14.7)
7.0 - 3:21.16 - (14.3)
7.5 - 3:35.54 - (14.3)
8.0 - 4:07.17 - (31.6)
21.75 24